Home   Weather   Tempe   Past weeks

Flag for USA Past Weather in Tempe, Arizona, USA — Yesterday and Last 2 Weeks

Now
103 °F

Sunny.


Feels Like: 97 °F
Forecast: 72 / 103 °F
Wind: 9 mph from Northwest

Location: Phoenix Sky Harbor International Airport

Current Time: May 23, 2017 at 3:26:36 pm

Latest Report: May 23, 2017 at 2:51 pm


Visibility: 10 mi

Pressure: 29.73 "Hg

Humidity: 6%

Dew Point: 23 °F

Location of TempeLocation

Past Weather in Tempe — Graph

°F

Tempe Temperature Yesterday

Maximum temperature yesterday: 103 °F (at 3:51 pm)
Minimum temperature yesterday: 74 °F (at 4:51 am)
Average temperature yesterday: 90 °F

High & Low Weather Summary for the Past Weeks

 TemperatureHumidityPressure
High103 °F (May 22, 3:51 pm)84% (May 9, 2:51 am)30.04 "Hg (May 9, 2:51 am)
Low58 °F (May 9, 4:51 am)6% (May 21, 3:51 pm)29.56 "Hg (May 13, 5:51 pm)
Average79 °F23%29.78 "Hg
* Reported May 8 1:51 pm — May 23 1:51 pm, Tempe. Weather by CustomWeather, © 2017

Note: Actual official high and low records may vary slightly from our data, if they occured in-between our weather recording intervals... More about our weather records

Advertising

Tempe Weather History for the Previous 24 Hours

Scroll right to see more
 ConditionsComfort  
Time TempWeatherWind HumidityBarometerVisibility
1:51 pm
Tue, May 23
101 °FSunny.9 mph7%29.75 "Hg10 mi
12:51 pm100 °FSunny.6 mph7%29.77 "Hg10 mi
11:51 am99 °FSunny.7 mph8%29.80 "Hg10 mi
10:51 am96 °FSunny.3 mph9%29.82 "Hg10 mi
9:51 am93 °FSunny.6 mph10%29.83 "Hg10 mi
8:51 am90 °FSunny.6 mph12%29.83 "Hg10 mi
7:51 am88 °FSunny.5 mph12%29.82 "Hg10 mi
6:51 am82 °FSunny.6 mph16%29.80 "Hg10 mi
5:51 am79 °FPassing clouds.No wind20%29.79 "Hg10 mi
4:51 am78 °FClear.No wind22%29.78 "Hg10 mi
3:51 am81 °FPassing clouds.No wind17%29.76 "Hg10 mi
2:51 am81 °FPassing clouds.No wind17%29.75 "Hg10 mi
1:51 am83 °FPassing clouds.6 mph15%29.73 "Hg10 mi
12:51 am86 °FPassing clouds.7 mph13%29.73 "Hg10 mi
11:51 pm
Mon, May 22
89 °FPassing clouds.8 mph11%29.73 "Hg10 mi
10:51 pm88 °FPassing clouds.8 mph12%29.73 "Hg10 mi
9:51 pm93 °FPartly cloudy.8 mph9%29.73 "Hg10 mi
8:51 pm94 °FPartly cloudy.6 mph9%29.71 "Hg10 mi
7:51 pm97 °FPassing clouds.6 mph8%29.70 "Hg10 mi
6:51 pm100 °FBroken clouds.9 mph7%29.69 "Hg10 mi
5:51 pm101 °FBroken clouds.12 mph7%29.69 "Hg10 mi
4:51 pm102 °FScattered clouds.16 mph7%29.70 "Hg10 mi
3:51 pm103 °FPassing clouds.17 mph6%29.72 "Hg10 mi
Weather by CustomWeather, © 2017

See weather overviewHow to use our weather pages